• In Germany
  • List of Countries
  • For 7 days
  • Water Temperature
  • Satellite Maps
  • Weather Map
  • Weather Widgets
  • user-avatar
    Login

    Hourly Weather Neiva

    Today, 21 August, Monday

    Time Temperature Precipitation Wind Pressure Humidity
    00:00 +26°C° 0 mm 1 mps 721 mmHg 69%
    01:00 +26°C° 0 mm 1 mps 721 mmHg 69%
    02:00 +26°C° 0 mm 1 mps 721 mmHg 68%
    03:00 +26°C° 0 mm 1 mps 721 mmHg 68%
    04:00 +26°C° 0 mm 1 mps 721 mmHg 67%
    05:00 +26°C° 0.1 mm 1 mps 722 mmHg 67%
    06:00 +26°C° 0.1 mm 1 mps 722 mmHg 66%
    07:00 +26°C° 0.1 mm 1 mps 723 mmHg 66%
    08:00 +28°C° 0 mm 1 mps 723 mmHg 60%
    09:00 +30°C° 0 mm 1 mps 723 mmHg 55%
    10:00 +32°C° 0 mm 2 mps 723 mmHg 50%
    11:00 +34°C° 0.1 mm 2 mps 723 mmHg 48%
    12:00 +34°C° 0.1 mm 2 mps 722 mmHg 46%
    13:00 +35°C° 0.1 mm 2 mps 722 mmHg 45%
    14:00 +35°C° 0.1 mm 2 mps 721 mmHg 47%
    15:00 +34°C° 0.1 mm 2 mps 721 mmHg 49%
    16:00 +32°C° 0.1 mm 2 mps 720 mmHg 50%
    17:00 +30°C° 0.2 mm 2 mps 721 mmHg 56%
    18:00 +29°C° 0.2 mm 2 mps 721 mmHg 61%
    19:00 +27°C° 0.2 mm 2 mps 722 mmHg 67%
    20:00 +26°C° 0 mm 2 mps 722 mmHg 66%
    21:00 +26°C° 0 mm 2 mps 723 mmHg 65%
    22:00 +26°C° 0 mm 2 mps 723 mmHg 65%
    23:00 +26°C° 0 mm 2 mps 723 mmHg 64%

    Tomorrow, 22 August, Tuesday

    Time Temperature Precipitation Wind Pressure Humidity
    00:00 +25°C° 0 mm 2 mps 723 mmHg 63%
    01:00 +25°C° 0 mm 2 mps 722 mmHg 62%
    02:00 +25°C° 0 mm 2 mps 722 mmHg 62%
    03:00 +25°C° 0 mm 2 mps 722 mmHg 61%
    04:00 +24°C° 0 mm 2 mps 721 mmHg 61%
    05:00 +25°C° 0 mm 2 mps 722 mmHg 60%
    06:00 +25°C° 0 mm 2 mps 722 mmHg 58%
    07:00 +26°C° 0 mm 2 mps 723 mmHg 57%
    08:00 +28°C° 0 mm 2 mps 723 mmHg 50%
    09:00 +31°C° 0 mm 2 mps 723 mmHg 43%
    10:00 +35°C° 0 mm 2 mps 723 mmHg 36%
    11:00 +35°C° 0 mm 2 mps 723 mmHg 35%
    12:00 +36°C° 0 mm 3 mps 722 mmHg 35%
    13:00 +37°C° 0 mm 3 mps 721 mmHg 34%
    14:00 +36°C° 0 mm 3 mps 720 mmHg 37%
    15:00 +35°C° 0 mm 3 mps 720 mmHg 40%
    16:00 +35°C° 0 mm 3 mps 719 mmHg 43%
    17:00 +33°C° 0 mm 3 mps 720 mmHg 50%
    18:00 +30°C° 0 mm 2 mps 720 mmHg 57%
    19:00 +28°C° 0 mm 2 mps 721 mmHg 64%
    20:00 +28°C° 0 mm 2 mps 721 mmHg 64%
    21:00 +27°C° 0 mm 2 mps 722 mmHg 63%
    22:00 +27°C° 0 mm 2 mps 723 mmHg 63%
    23:00 +27°C° 0.1 mm 2 mps 722 mmHg 62%

    Day after tomorrow, 23 August, Wednesday

    Time Temperature Precipitation Wind Pressure Humidity
    00:00 +26°C° 0.1 mm 2 mps 722 mmHg 62%
    01:00 +26°C° 0.1 mm 2 mps 722 mmHg 62%
    02:00 +26°C° 0.1 mm 2 mps 721 mmHg 62%
    03:00 +26°C° 0.1 mm 1 mps 721 mmHg 63%
    04:00 +25°C° 0.1 mm 1 mps 721 mmHg 63%
    05:00 +26°C° 0.1 mm 1 mps 721 mmHg 62%
    06:00 +26°C° 0.1 mm 1 mps 721 mmHg 62%
    07:00 +26°C° 0.1 mm 1 mps 721 mmHg 61%
    08:00 +29°C° 0.1 mm 1 mps 722 mmHg 55%
    09:00 +31°C° 0.1 mm 2 mps 722 mmHg 49%
    10:00 +34°C° 0.1 mm 2 mps 722 mmHg 42%
    11:00 +35°C° 0.1 mm 2 mps 721 mmHg 40%
    12:00 +36°C° 0.1 mm 2 mps 720 mmHg 38%
    13:00 +37°C° 0.1 mm 2 mps 720 mmHg 36%
    14:00 +37°C° 0.1 mm 2 mps 719 mmHg 38%
    15:00 +36°C° 0.1 mm 2 mps 718 mmHg 40%
    16:00 +35°C° 0.1 mm 2 mps 718 mmHg 42%
    17:00 +32°C° 0.1 mm 2 mps 718 mmHg 49%
    18:00 +30°C° 0.1 mm 2 mps 719 mmHg 56%
    19:00 +28°C° 0.1 mm 2 mps 719 mmHg 63%
    20:00 +27°C° 0 mm 2 mps 720 mmHg 64%
    21:00 +27°C° 0 mm 2 mps 721 mmHg 65%
    22:00 +26°C° 0 mm 2 mps 721 mmHg 66%
    23:00 +26°C° 0 mm 2 mps 721 mmHg 66%

    24 August, Thursday

    Time Temperature Precipitation Wind Pressure Humidity
    00:00 +26°C° 0 mm 1 mps 720 mmHg 66%
    01:00 +26°C° 0 mm 1 mps 720 mmHg 66%
    02:00 +25°C° 0 mm 1 mps 720 mmHg 66%
    03:00 +25°C° 0 mm 1 mps 720 mmHg 66%
    04:00 +25°C° 0 mm 1 mps 720 mmHg 65%
    05:00 +25°C° 0 mm 1 mps 720 mmHg 64%
    06:00 +26°C° 0 mm 1 mps 721 mmHg 63%
    07:00 +26°C° 0 mm 1 mps 721 mmHg 61%
    08:00 +28°C° 0.1 mm 1 mps 721 mmHg 57%
    09:00 +30°C° 0.1 mm 1 mps 722 mmHg 53%
    10:00 +31°C° 0.1 mm 1 mps 722 mmHg 49%
    11:00 +33°C° 0.2 mm 1 mps 721 mmHg 46%
    12:00 +35°C° 0.2 mm 2 mps 720 mmHg 44%
    13:00 +36°C° 0.2 mm 2 mps 720 mmHg 41%
    14:00 +35°C° 0.3 mm 2 mps 719 mmHg 43%
    15:00 +35°C° 0.3 mm 2 mps 719 mmHg 45%
    16:00 +34°C° 0.3 mm 2 mps 718 mmHg 47%
    17:00 +31°C° 0.4 mm 2 mps 719 mmHg 54%
    18:00 +29°C° 0.4 mm 2 mps 719 mmHg 61%
    19:00 +27°C° 0.4 mm 1 mps 720 mmHg 68%
    20:00 +27°C° 0.3 mm 2 mps 720 mmHg 69%
    21:00 +26°C° 0.3 mm 2 mps 721 mmHg 70%
    22:00 +26°C° 0.3 mm 2 mps 721 mmHg 71%
    23:00 +26°C° 0.1 mm 1 mps 721 mmHg 71%

    25 August, Friday

    Time Temperature Precipitation Wind Pressure Humidity
    00:00 +25°C° 0.1 mm 1 mps 720 mmHg 71%
    01:00 +25°C° 0.1 mm 1 mps 720 mmHg 71%
    02:00 +25°C° 0.1 mm 1 mps 720 mmHg 70%
    03:00 +25°C° 0.1 mm 1 mps 720 mmHg 69%
    04:00 +25°C° 0.1 mm 1 mps 720 mmHg 68%
    05:00 +25°C° 0.1 mm 1 mps 720 mmHg 66%
    06:00 +26°C° 0.1 mm 1 mps 721 mmHg 64%
    07:00 +26°C° 0.1 mm 1 mps 721 mmHg 62%
    08:00 +29°C° 0 mm 1 mps 722 mmHg 56%
    09:00 +31°C° 0 mm 1 mps 722 mmHg 50%
    10:00 +33°C° 0 mm 1 mps 722 mmHg 44%
    11:00 +34°C° 0.1 mm 1 mps 721 mmHg 43%
    12:00 +34°C° 0.1 mm 1 mps 721 mmHg 42%
    13:00 +35°C° 0.1 mm 1 mps 720 mmHg 40%
    14:00 +35°C° 0.2 mm 1 mps 719 mmHg 42%
    15:00 +34°C° 0.2 mm 1 mps 719 mmHg 44%
    16:00 +35°C° 0.2 mm 2 mps 718 mmHg 46%
    17:00 +32°C° 0.3 mm 1 mps 719 mmHg 52%
    18:00 +30°C° 0.3 mm 1 mps 720 mmHg 59%
    19:00 +28°C° 0.3 mm 1 mps 720 mmHg 66%
    20:00 +27°C° 0.5 mm 1 mps 721 mmHg 69%
    21:00 +27°C° 0.5 mm 1 mps 721 mmHg 72%
    22:00 +26°C° 0.5 mm 1 mps 722 mmHg 75%
    23:00 +26°C° 1 mm 1 mps 722 mmHg 77%

    26 August, Saturday

    Time Temperature Precipitation Wind Pressure Humidity
    00:00 +24°C° 1 mm 0 mps 721 mmHg 79%
    01:00 +23°C° 1 mm 0 mps 721 mmHg 80%
    02:00 +23°C° 0.4 mm 0 mps 721 mmHg 81%
    03:00 +23°C° 0.4 mm 0 mps 721 mmHg 82%
    04:00 +23°C° 0.4 mm 0 mps 720 mmHg 83%
    05:00 +23°C° 0.1 mm 0 mps 721 mmHg 81%
    06:00 +23°C° 0.1 mm 0 mps 721 mmHg 80%
    07:00 +26°C° 0.1 mm 1 mps 721 mmHg 78%
    08:00 +28°C° 0 mm 1 mps 722 mmHg 70%
    09:00 +29°C° 0 mm 1 mps 722 mmHg 62%
    10:00 +31°C° 0 mm 1 mps 722 mmHg 54%
    11:00 +32°C° 0.2 mm 1 mps 721 mmHg 52%
    12:00 +34°C° 0.2 mm 2 mps 721 mmHg 50%
    13:00 +35°C° 0.2 mm 2 mps 720 mmHg 48%
    14:00 +34°C° 0.2 mm 2 mps 719 mmHg 48%
    15:00 +34°C° 0.2 mm 2 mps 719 mmHg 49%
    16:00 +34°C° 0.2 mm 2 mps 718 mmHg 49%
    17:00 +31°C° 0.1 mm 1 mps 719 mmHg 55%
    18:00 +29°C° 0.1 mm 1 mps 719 mmHg 61%
    19:00 +28°C° 0.1 mm 1 mps 720 mmHg 67%
    20:00 +27°C° 0 mm 1 mps 720 mmHg 68%
    21:00 +27°C° 0 mm 1 mps 721 mmHg 68%
    22:00 +26°C° 0 mm 1 mps 721 mmHg 69%
    23:00 +26°C° 0 mm 1 mps 721 mmHg 68%
    Show more